Terug naar catalogus

STARLINK-2103

ActiefCommunicatieVLEO
NORAD 47383·PAYLOAD·🇺🇸 United States

Gelanceerd Jan 20, 2021 vanaf Cape Canaveral Space Force Station

Loading…

Volgende Passages (komende 24 uur)

TLE

VersSource: CelesTrak SupGP

Epoch: Sep 15, 2026, 00:54 UTC

1 47383C 21005AL  26258.03798611 -.00010340  00000+0 -23253-3 0  2586
2 47383  53.1548 208.0388 0001691  55.6588 245.1129 15.42746588    11

Volg STARLINK-2103 in realtime met AllMySat

Download on the App Store